Dewpoint
-12 -7 -2 -0 -4 -6 -7 -6 -6 1 5 4 5 5 5 6 7 7 8 1 3 4 8 8 9 10 10 8 6 -4 -10 -8 -8 -7 -6 -6 -6 -6 -4 -3 -2 -1 -1 -1 -1 -2 0 5 7
-9 -4 -0 -2 -4 -4 -1 -5 -4 -5 5 6 5 7 6 7 7 6 8 -1 1 3 7 6 8 9 10 9 6 -2 -9 -8 -7 -7 -7 -7 -6 -6 -5 -3 -2 -1 -0 0 0 0 1 4 8
-1 -0 -0 -2 -2 -3 -2 -4 -1 7 6 6 7 7 6 6 7 8 5 1 2 4 4 4 7 9 10 9 5 -2 -10 -9 -7 -7 -8 -8 -7 -7 -6 -4 -2 -1 -0 0 1 1 1 2 7
-1 1 -2 -1 0 -1 -3 -4 -4 7 7 7 7 8 7 7 7 8 5 5 4 3 3 4 6 9 10 8 4 -3 -12 -10 -7 -7 -8 -9 -9 -8 -7 -6 -4 -3 -2 -0 0 1 1 2 5
0 -0 -0 0 0 -2 -3 -3 -4 -1 5 9 8 10 9 7 7 7 7 7 7 4 2 3 6 8 9 7 2 -5 -11 -11 -8 -8 -8 -9 -10 -9 -9 -8 -6 -5 -4 -2 -1 1 2 2 2
-1 -2 0 1 -1 -3 -4 -4 -5 -4 4 10 10 10 9 7 7 7 8 8 7 3 1 3 5 7 8 4 1 -7 -8 -8 -8 -9 -9 -9 -10 -10 -9 -9 -8 -6 -5 -4 -3 -2 -1 1 3
-2 -3 -1 -1 -2 -3 -4 -5 -5 4 10 11 10 11 10 8 7 8 8 9 7 3 1 2 5 7 7 3 -1 -7 -6 -5 -5 -6 -7 -8 -9 -9 -9 -9 -8 -7 -6 -5 -4 -4 -3 4 9
-3 -4 -3 -3 -2 -3 -4 -5 4 7 10 11 9 10 10 8 7 7 9 9 6 3 2 3 4 6 5 3 -1 -6 -3 -2 -2 -3 -4 -4 -5 -5 -5 -5 -4 -3 -3 -3 -3 -3 -2 7 10
-3 -3 -2 -3 -3 -3 -4 -4 -5 6 9 10 10 10 8 9 8 8 9 7 5 3 2 3 4 4 4 2 -2 -4 -1 1 1 -0 -1 -2 -2 -1 -1 0 1 3 3 3 2 1 4 5 11
-2 -2 -2 -5 -5 -3 -4 -5 -5 8 9 9 10 9 9 9 9 8 8 7 6 4 2 2 2 2 3 1 -3 -5 -0 2 3 3 1 -0 -0 1 1 3 4 6 7 6 5 4 8 10 11
-3 -1 -3 -3 -4 -4 -4 -5 -5 7 5 6 8 8 9 9 9 8 8 7 5 4 2 1 2 2 2 1 -2 -5 -1 1 3 4 4 3 2 1 3 4 7 9 10 10 8 9 10 11 11
-3 -4 -3 -4 -4 -3 -4 -5 -5 -5 -5 -5 -0 7 8 8 8 7 7 7 6 4 2 2 1 3 2 2 0 -3 -3 0 2 4 5 6 5 3 3 7 8 10 11 10 11 11 11 11 11
-3 -4 -3 -3 -3 -3 -3 -4 -5 -5 -6 -6 -4 6 8 7 7 8 8 8 8 8 5 2 2 2 3 3 3 2 -1 -1 0 3 4 6 6 6 5 7 9 10 11 11 11 11 11 11 11
-4 -3 -2 -2 -3 -3 -3 -4 -5 -5 -5 -4 1 1 6 7 6 8 8 8 7 8 8 7 4 3 3 2 2 3 3 2 2 2 3 5 6 7 6 8 10 11 10 12 11 11 11 11 12
-1 -1 -2 -3 -3 -3 -4 -3 -4 -5 -5 -4 1 7 6 7 9 7 6 5 4 4 7 8 8 8 8 7 4 3 3 4 5 4 4 5 6 8 8 7 11 12 10 12 11 11 12 12 12
-1 -2 -0 -3 -3 -4 -4 -2 -4 -4 -5 -5 -4 3 8 7 8 7 8 8 6 7 7 7 8 8 8 8 8 5 3 3 4 5 6 7 7 8 9 8 10 11 11 11 11 11 12 12 12
-0 -1 -1 -3 -3 -3 -3 -2 -4 -5 -6 -6 -6 -5 -2 3 8 8 8 8 8 7 5 6 7 7 8 10 10 9 5 4 5 5 6 7 8 9 9 9 11 11 11 11 11 11 12 12 12
0 1 -0 -1 -4 -5 -4 -4 -5 -6 -6 -6 -7 -7 -7 -6 -4 -1 3 6 8 9 8 7 8 7 8 11 11 10 8 5 5 5 6 7 8 10 10 10 11 12 12 12 11 12 12 12 12
-2 -1 -1 -3 -4 -4 -3 -4 -5 -7 -8 -8 -9 -11 -8 -8 -9 -7 -7 -4 5 10 10 9 7 7 8 9 11 9 6 5 5 4 6 6 8 12 10 10 11 12 12 12 12 12 13 12 12
-0 -0 -1 -3 -4 -4 -4 -4 -7 -8 -7 -7 -7 -8 -8 -8 -7 -7 -7 -7 -3 4 9 10 9 9 8 9 9 10 9 7 6 6 5 6 8 12 10 9 10 12 13 13 13 13 12 12 11
0 1 -1 -2 -3 -4 -4 -5 -8 -10 -8 -9 -8 -8 -8 -7 -7 -8 -7 -7 -6 -3 3 7 8 9 8 9 11 12 12 10 9 7 6 6 8 12 12 9 10 12 13 13 13 12 12 11 10
-2 -2 -1 -2 -2 -2 -5 -1 -4 -6 -7 -7 -8 -8 -8 -8 -8 -8 -8 -8 -8 -6 -4 3 6 10 12 11 11 11 10 10 8 8 7 7 8 11 13 12 11 11 13 13 13 13 12 11 10
-2 -1 -1 -2 -2 2 -2 -1 -2 -5 -4 -6 -7 -8 -8 -8 -8 -7 -6 -5 -5 -7 -7 -6 -2 6 9 10 12 12 12 10 11 10 9 9 9 9 12 12 11 12 13 13 13 13 12 11 9
-1 -1 -0 -0 4 6 3 0 1 -2 -4 -6 -7 -7 -6 -6 -5 -4 -4 -4 -4 -4 -3 -3 -5 -5 1 8 11 12 12 12 13 12 11 10 9 10 11 12 10 11 12 12 12 12 12 11 8
-1 1 4 4 7 5 4 6 4 -1 -4 -5 -6 -4 -3 -1 -1 -1 -1 -2 -2 -2 -2 -2 -1 -1 -1 3 7 7 8 12 13 13 12 12 11 10 9 11 10 11 11 11 12 12 11 9 7
-0 1 4 6 5 4 2 6 3 -2 -3 -3 -1 -1 -3 -5 -2 -1 -1 -1 -1 -1 -1 -1 -1 -1 -1 0 2 3 7 11 13 13 12 13 12 11 10 11 11 12 11 12 13 12 9 8 3
1 2 -0 3 3 5 3 1 -2 -3 -3 0 -2 -6 -6 -6 -6 -6 -3 -2 -2 -2 -1 -1 -1 -1 -2 -2 -1 1 7 10 13 14 14 13 13 12 11 10 11 9 10 12 13 11 8 4 -1
1 -0 4 5 7 7 4 2 1 -2 0 -3 -4 -5 -5 -5 -5 -4 -2 -4 -4 -3 -1 -0 -1 -1 -1 -1 1 0 2 8 12 14 14 13 13 13 12 9 11 10 11 12 13 10 6 2 -4
-3 -2 2 3 6 6 6 3 -1 2 -1 -3 -5 -6 -6 -5 -5 -5 -2 -3 -3 -3 -3 -1 -0 0 0 3 3 2 3 8 12 14 14 14 14 13 12 10 10 11 11 13 12 8 5 1 -5
-3 1 2 4 4 5 7 5 -0 0 -2 -3 -4 -5 -6 -6 -4 -6 -3 -5 0 1 -1 -2 -3 -1 0 7 6 5 9 11 12 13 14 14 14 14 12 11 11 12 13 12 9 5 1 -2 -5
Wind_Speed
3 3 6 2 4 5 4 4 3 1 4 9 20 6 7 4 5 4 9 29 28 31 31 28 25 23 20 17 14 14 16 16 15 14 13 12 12 12 12 12 12 12 12 13 12 12 12 11 11
4 4 4 3 5 4 5 4 6 4 1 9 13 4 3 2 3 3 22 28 28 29 30 27 25 24 21 18 15 15 16 16 15 14 13 12 12 12 11 11 11 12 12 11 11 11 10 9 8
4 3 3 4 3 3 4 4 5 4 6 6 4 3 2 4 4 14 23 26 29 28 27 26 26 24 22 19 17 15 15 16 15 14 12 12 12 12 11 11 10 11 11 11 10 9 8 7 5
2 2 5 4 2 4 4 4 1 2 3 6 8 3 1 3 9 16 27 25 27 26 26 26 25 24 23 20 18 16 16 16 15 13 11 10 10 10 10 10 9 9 10 9 9 8 7 6 4
2 3 4 1 4 5 5 10 5 2 0 3 8 1 1 8 6 17 24 24 26 26 25 25 25 25 23 20 18 17 16 16 15 12 11 9 9 9 9 8 8 8 8 8 8 7 6 5 4
2 3 4 2 4 5 6 7 3 5 7 6 4 5 5 11 9 21 23 24 25 23 25 25 25 24 23 21 19 18 16 16 15 13 12 10 9 8 8 7 7 7 7 6 6 6 6 5 4
5 4 2 2 3 6 4 12 5 10 10 9 9 5 4 13 14 21 21 23 25 24 25 26 26 25 23 21 20 19 18 16 15 13 12 10 9 9 8 7 6 6 5 5 5 5 5 6 4
3 4 2 3 2 5 7 11 5 6 6 12 12 5 5 20 19 22 22 25 25 26 26 26 27 26 24 23 21 20 18 17 16 14 13 12 11 10 10 9 7 6 5 5 4 4 4 5 4
3 4 2 4 3 5 11 8 6 2 15 9 13 6 5 22 23 25 27 28 27 27 27 27 28 27 25 24 23 21 19 18 17 16 15 13 11 10 9 8 8 6 5 5 4 5 5 6 5
3 3 7 4 1 5 10 4 10 2 5 3 8 9 8 24 27 30 32 31 31 30 30 30 29 28 27 26 25 24 22 21 19 18 16 15 13 12 11 9 8 6 5 5 5 6 7 6 5
5 4 4 3 6 8 8 10 3 9 2 6 12 13 13 26 29 30 30 29 27 28 31 31 31 29 29 28 27 26 25 23 21 20 18 16 15 14 12 11 9 6 5 5 6 7 8 6 4
2 7 7 3 4 11 7 12 5 7 6 3 5 13 17 27 30 31 31 29 28 30 30 31 32 32 31 29 28 27 26 25 24 22 20 19 17 15 13 12 11 9 7 6 7 7 7 6 6
4 3 7 11 12 16 12 8 5 9 5 6 7 13 19 28 30 29 29 28 27 29 30 32 33 33 32 31 30 29 29 28 25 24 23 21 20 17 16 14 12 12 11 9 8 8 8 9 10
3 7 13 8 13 11 7 7 2 4 5 5 8 14 20 27 28 30 31 32 30 29 31 31 33 33 33 32 32 32 31 30 29 28 26 25 23 20 19 18 17 13 14 13 11 12 11 11 11
5 6 5 5 7 6 7 5 7 13 10 7 10 17 22 27 31 32 29 31 31 31 30 32 33 33 34 33 33 34 33 32 32 31 29 28 26 24 22 22 21 16 15 14 15 15 14 14 13
4 3 4 4 4 5 9 9 7 8 6 10 11 17 23 28 32 32 33 33 34 34 35 32 33 35 35 35 35 36 36 36 35 35 32 31 30 28 25 26 23 18 17 16 16 17 16 16 15
5 3 5 6 4 2 5 4 4 11 13 12 12 12 19 26 34 37 37 37 38 38 37 36 36 38 39 40 39 39 40 40 39 37 36 34 32 31 30 29 26 21 20 19 19 20 21 20 18
6 5 4 5 3 4 6 7 9 20 25 17 19 18 18 21 26 30 37 42 44 44 43 41 40 40 41 42 42 42 44 43 42 41 39 37 35 33 33 33 29 25 24 22 23 24 24 22 20
3 4 5 1 1 6 3 10 12 24 27 19 27 29 26 27 29 27 28 33 45 51 49 47 46 45 45 46 48 47 46 47 45 44 42 40 37 35 34 36 34 31 29 26 26 28 27 25 24
4 4 12 3 4 3 5 19 12 6 14 23 27 29 29 26 26 26 26 29 34 47 55 52 51 51 49 51 50 50 48 48 47 46 45 44 41 38 37 38 37 36 34 30 29 30 30 28 26
5 9 8 6 5 4 5 12 16 4 11 20 21 21 23 22 21 27 27 25 25 38 49 55 57 56 54 55 54 53 50 49 49 50 51 48 44 42 40 39 40 38 38 36 33 32 32 31 29
6 8 9 5 2 3 3 7 16 8 13 9 22 22 22 26 21 24 29 30 26 23 30 42 51 57 57 55 56 58 57 57 55 54 51 50 47 46 43 41 40 40 41 40 37 33 33 32 31
4 3 2 3 2 5 2 3 10 8 16 7 9 21 22 23 26 25 24 27 28 21 20 26 38 48 55 59 58 58 61 61 59 56 55 51 49 47 46 43 41 43 43 41 40 35 36 35 32
2 1 2 3 4 4 8 2 22 4 7 3 5 16 25 27 29 35 37 36 32 21 20 21 23 32 42 54 60 61 64 63 60 61 60 56 51 49 47 45 42 44 44 42 41 35 36 36 32
2 4 2 1 1 9 10 9 24 1 6 9 8 26 32 29 30 33 36 37 34 30 32 28 23 23 33 47 52 56 62 63 63 63 63 61 56 50 49 48 46 46 46 45 41 40 39 36 33
5 7 5 5 4 3 3 9 9 6 6 9 15 21 29 34 36 39 39 41 40 38 35 34 31 30 28 31 44 53 57 60 62 62 63 64 63 51 48 50 47 45 47 45 39 38 37 34 32
1 1 3 1 2 2 5 12 18 20 18 11 21 30 33 35 38 39 40 40 39 40 36 34 32 34 31 37 39 47 58 59 58 57 59 63 62 52 46 47 49 44 42 43 40 38 35 34 31
3 2 2 2 2 4 4 5 11 11 4 9 12 20 29 36 38 40 41 42 41 40 38 37 36 37 36 38 42 42 50 55 56 53 59 60 61 50 47 44 46 45 40 44 43 39 35 34 30
4 2 2 1 4 4 3 6 4 4 5 5 8 23 30 36 41 44 41 43 45 39 38 39 39 40 39 38 40 43 47 50 50 52 57 59 54 48 46 44 41 46 43 46 44 40 38 35 30
3 4 4 4 4 2 2 11 5 5 5 18 17 24 32 35 38 41 42 44 43 42 41 39 43 39 39 35 31 37 43 45 48 50 53 57 45 46 46 43 43 47 45 44 43 42 35 33 28
Wind_Direction
29 17 348 48 54 60 294 286 287 247 175 157 150 151 181 169 175 215 164 171 173 168 168 167 170 176 179 179 171 162 160 156 153 149 146 141 135 128 122 119 114 110 105 102 103 106 109 107 101
65 22 10 78 82 54 294 267 293 278 118 139 142 111 98 277 225 218 156 164 171 171 170 169 173 178 182 182 178 168 163 162 160 156 153 147 138 131 129 124 119 118 113 109 104 102 102 108 110
80 35 40 87 108 154 223 235 278 333 147 140 121 52 19 303 251 169 162 164 170 175 174 174 176 179 184 184 183 173 168 168 165 162 159 151 144 141 136 132 128 124 118 114 109 103 103 103 112
44 107 64 77 271 249 224 217 26 98 139 134 121 86 229 281 163 162 163 168 170 177 178 178 178 182 185 186 185 178 171 171 168 165 161 156 152 147 142 138 134 129 125 123 120 119 116 112 113
56 78 61 46 266 267 256 286 289 220 175 106 144 157 330 150 172 168 165 170 175 178 180 181 182 185 187 190 187 182 175 171 169 166 163 162 159 153 148 145 146 141 135 130 128 127 124 123 127
36 59 68 244 259 271 285 248 228 214 199 139 144 149 182 178 160 165 171 174 178 182 183 184 184 188 189 192 191 185 178 173 170 167 168 166 167 159 153 152 151 143 136 131 130 127 128 130 128
119 86 208 250 271 307 269 325 184 172 167 179 159 142 223 180 169 177 180 180 182 189 188 187 188 190 193 196 195 189 182 177 173 171 172 173 171 162 158 158 155 144 136 129 129 128 128 126 111
138 91 108 253 283 284 331 354 107 153 170 149 170 206 216 180 172 176 180 183 188 192 193 192 191 193 194 199 198 193 187 181 178 177 179 182 179 173 170 168 163 152 144 145 146 148 146 146 113
148 63 205 231 205 298 331 7 9 111 147 160 188 263 256 184 174 175 181 186 192 196 197 197 197 197 199 202 200 196 193 189 187 186 189 191 189 186 181 178 170 160 161 169 164 164 165 169 153
106 131 221 218 243 305 312 308 309 127 130 177 197 251 231 186 181 183 188 191 196 199 200 202 202 203 203 206 204 201 199 197 197 197 198 198 199 196 194 193 184 179 184 193 188 177 172 168 161
156 205 221 265 293 344 317 323 264 134 295 225 218 211 193 188 190 194 197 202 203 202 204 205 207 207 210 210 209 206 206 206 206 207 207 207 207 207 207 205 192 187 186 199 192 179 176 180 182
279 237 255 287 328 332 311 318 279 215 197 213 238 229 202 198 201 201 205 207 207 208 210 210 211 212 214 215 216 215 214 213 214 214 215 217 217 216 213 206 204 199 192 175 178 184 191 213 220
203 266 270 285 296 300 297 289 280 259 247 236 224 215 214 211 213 212 213 212 215 217 216 216 216 216 219 220 221 221 221 221 221 221 222 224 226 225 220 214 211 206 206 198 199 212 231 237 236
314 285 287 302 290 283 275 283 3 351 229 247 220 217 220 221 224 217 219 219 220 222 223 220 220 221 223 226 226 227 227 226 226 225 227 230 229 229 227 223 220 216 220 218 221 232 230 238 248
297 314 324 231 255 245 214 301 234 255 254 261 245 226 226 235 226 230 235 228 228 229 226 225 224 224 227 230 230 230 231 231 230 230 230 231 233 231 231 228 225 224 218 221 227 238 242 248 253
359 53 351 293 152 259 167 260 258 270 233 268 266 249 239 239 239 243 243 239 238 235 234 231 227 228 230 232 232 233 232 232 233 233 233 234 235 234 232 228 224 219 218 222 236 240 244 248 254
356 240 247 294 236 275 178 275 281 317 318 301 294 272 265 261 247 249 248 248 244 242 240 237 233 232 232 233 234 235 236 234 235 235 236 235 237 237 236 229 225 222 222 225 233 239 242 247 253
206 214 238 246 336 358 300 254 279 293 300 301 298 291 278 277 269 267 261 256 250 247 243 243 239 238 235 236 238 238 238 237 238 237 237 237 236 236 236 232 228 227 224 225 232 236 240 247 247
173 231 240 263 343 1 302 288 274 286 291 294 293 290 289 289 295 289 277 270 259 252 247 243 242 239 239 235 236 237 238 237 236 238 238 237 235 235 234 233 231 231 230 229 236 239 239 239 236
261 271 268 292 241 195 334 291 281 246 269 275 280 289 291 291 292 293 291 285 267 256 253 249 245 243 241 242 240 240 241 241 242 239 240 237 233 233 233 233 232 233 233 233 237 244 240 233 231
213 230 267 266 309 226 252 284 295 265 242 275 274 276 283 288 295 299 300 306 297 265 258 254 252 247 242 242 242 241 242 244 245 244 240 236 231 232 231 233 233 234 234 235 238 242 239 237 231
242 193 224 258 315 274 136 287 280 288 288 259 283 287 286 292 308 315 318 322 323 314 277 265 259 257 255 246 242 243 244 244 247 246 243 239 233 232 230 234 235 234 234 235 238 243 239 237 234
218 68 173 172 202 15 149 245 292 15 299 305 301 303 301 318 324 323 333 339 340 320 306 284 273 265 259 257 252 249 247 249 248 248 246 244 236 233 231 234 238 237 236 237 239 238 237 235 235
6 48 230 183 118 251 228 11 284 217 272 300 309 318 333 333 325 323 325 328 333 344 349 336 288 277 271 262 256 254 255 253 248 247 246 245 240 234 233 234 236 235 237 239 242 233 236 235 238
167 87 332 2 174 239 139 186 242 79 296 298 304 313 328 346 341 333 332 327 331 327 325 328 325 294 280 269 263 260 258 255 252 252 250 245 242 236 236 236 235 233 238 241 239 229 228 232 238
190 167 164 211 210 292 142 226 248 332 46 350 15 10 352 348 340 334 333 332 329 321 321 327 319 314 311 289 274 267 261 256 252 251 251 250 247 243 239 237 236 236 241 242 237 230 227 232 235
311 144 186 267 328 268 225 278 292 278 277 34 7 359 352 344 343 339 340 336 333 330 321 323 321 314 311 305 297 270 261 255 247 245 246 248 249 244 243 241 239 241 242 243 236 227 228 229 228
104 254 50 42 249 249 262 251 238 288 356 20 358 345 339 336 337 336 337 338 334 336 329 320 318 316 315 307 294 271 262 256 248 241 245 247 246 242 243 242 237 235 244 240 233 225 225 226 223
346 353 46 227 158 222 270 248 218 109 109 11 337 340 339 335 334 335 331 332 334 333 334 335 331 325 320 311 296 271 259 254 247 238 240 245 244 243 240 239 239 236 237 229 225 222 219 218 216
215 204 154 153 249 273 316 269 62 114 331 346 337 329 328 322 324 328 328 331 335 335 334 332 331 325 330 317 291 271 260 254 247 236 232 239 242 240 237 235 234 232 231 224 219 213 213 208 204
Height
1509 1509 1509 1509 1521 1527 1528 1515 1508 1502 1501 1498 1499 1504 1506 1508 1511 1522 1504 1508 1514 1517 1521 1525 1530 1533 1537 1539 1541 1542 1543 1545 1546 1548 1549 1551 1552 1553 1554 1554 1555 1555 1556 1556 1556 1557 1557 1558 1558
1508 1508 1509 1508 1529 1539 1530 1513 1508 1501 1499 1500 1503 1504 1504 1505 1505 1506 1506 1510 1515 1518 1521 1525 1529 1533 1536 1539 1541 1543 1544 1546 1548 1549 1551 1552 1553 1554 1555 1556 1556 1557 1557 1558 1558 1558 1559 1559 1559
1507 1507 1508 1518 1536 1532 1527 1509 1503 1499 1500 1501 1504 1505 1506 1506 1505 1505 1506 1509 1514 1518 1522 1525 1529 1532 1536 1538 1541 1543 1545 1547 1549 1551 1552 1553 1554 1554 1556 1556 1557 1558 1558 1559 1559 1560 1560 1560 1561
1507 1508 1511 1523 1523 1514 1509 1501 1501 1500 1500 1501 1502 1507 1508 1508 1508 1509 1510 1512 1515 1519 1522 1526 1529 1533 1536 1538 1541 1543 1544 1547 1549 1551 1553 1554 1554 1555 1556 1557 1559 1559 1560 1560 1561 1561 1561 1562 1562
1507 1508 1523 1526 1520 1510 1503 1496 1498 1499 1501 1501 1504 1508 1509 1508 1510 1510 1512 1514 1516 1519 1523 1526 1529 1532 1535 1538 1540 1543 1545 1547 1549 1551 1553 1555 1555 1556 1557 1558 1559 1560 1561 1561 1562 1562 1563 1563 1563
1509 1511 1528 1528 1518 1507 1500 1496 1496 1498 1499 1502 1506 1507 1508 1509 1509 1511 1514 1516 1518 1521 1523 1526 1529 1533 1535 1537 1540 1542 1544 1546 1549 1551 1553 1554 1556 1556 1557 1558 1559 1560 1561 1562 1563 1563 1563 1563 1563
1509 1516 1526 1522 1518 1511 1501 1495 1494 1496 1499 1502 1504 1508 1507 1506 1508 1511 1514 1517 1520 1523 1524 1526 1529 1532 1535 1537 1539 1541 1544 1546 1548 1550 1552 1554 1555 1556 1558 1559 1559 1560 1561 1562 1563 1563 1563 1563 1564
1508 1512 1519 1521 1519 1512 1499 1496 1495 1493 1497 1499 1504 1506 1505 1504 1506 1510 1514 1517 1520 1522 1524 1526 1528 1531 1533 1537 1539 1541 1543 1545 1547 1549 1551 1553 1554 1555 1556 1558 1559 1560 1561 1561 1562 1563 1563 1564 1564
1508 1520 1527 1514 1513 1507 1500 1498 1494 1495 1495 1498 1502 1502 1503 1504 1505 1508 1512 1515 1518 1520 1522 1524 1527 1529 1533 1536 1538 1541 1543 1545 1546 1547 1550 1552 1554 1555 1556 1557 1558 1559 1560 1560 1561 1562 1563 1563 1564
1510 1521 1515 1505 1504 1505 1500 1500 1497 1497 1497 1498 1499 1500 1500 1503 1505 1505 1508 1509 1513 1515 1519 1522 1524 1527 1531 1533 1536 1538 1541 1543 1545 1546 1548 1550 1551 1553 1554 1555 1556 1557 1558 1559 1560 1561 1561 1562 1563
1507 1516 1505 1503 1502 1502 1502 1500 1498 1496 1499 1497 1497 1497 1500 1502 1503 1505 1507 1509 1510 1513 1516 1518 1521 1524 1527 1530 1533 1536 1538 1541 1543 1545 1546 1548 1549 1550 1552 1553 1555 1556 1557 1557 1558 1559 1560 1561 1562
1509 1503 1505 1502 1502 1502 1502 1501 1499 1497 1495 1496 1496 1497 1498 1501 1501 1501 1504 1507 1508 1510 1513 1516 1518 1521 1524 1527 1530 1533 1535 1538 1540 1543 1545 1546 1547 1549 1550 1551 1553 1554 1555 1556 1557 1558 1559 1560 1560
1506 1504 1502 1502 1500 1500 1500 1497 1499 1497 1495 1495 1495 1495 1496 1498 1499 1502 1504 1505 1508 1508 1510 1512 1515 1517 1520 1523 1526 1529 1531 1533 1536 1539 1541 1543 1545 1546 1548 1549 1550 1552 1554 1555 1556 1557 1558 1558 1558
1503 1503 1502 1499 1499 1498 1500 1495 1496 1494 1494 1495 1494 1494 1494 1495 1496 1499 1501 1501 1502 1504 1506 1510 1512 1515 1518 1519 1521 1523 1527 1529 1532 1533 1536 1538 1540 1543 1545 1546 1548 1548 1551 1553 1554 1554 1554 1555 1556
1501 1503 1501 1497 1497 1495 1494 1497 1496 1493 1495 1494 1493 1494 1494 1494 1496 1496 1496 1497 1498 1499 1502 1503 1508 1511 1512 1514 1516 1518 1521 1525 1527 1529 1532 1533 1535 1538 1541 1542 1544 1546 1547 1548 1550 1551 1552 1552 1553
1503 1505 1511 1496 1494 1491 1493 1501 1489 1491 1492 1494 1494 1494 1493 1494 1493 1493 1495 1496 1497 1498 1498 1500 1503 1505 1507 1508 1511 1513 1515 1518 1520 1523 1527 1529 1531 1533 1536 1538 1539 1542 1543 1544 1546 1547 1548 1549 1549
1513 1517 1510 1501 1491 1493 1495 1498 1488 1488 1489 1490 1492 1493 1492 1491 1491 1490 1490 1491 1491 1493 1495 1497 1498 1499 1502 1504 1506 1508 1510 1512 1514 1518 1520 1523 1526 1528 1530 1532 1536 1538 1539 1540 1541 1543 1545 1545 1546
1514 1512 1508 1506 1497 1495 1497 1498 1490 1487 1485 1485 1486 1487 1490 1488 1486 1487 1486 1486 1486 1487 1490 1493 1495 1495 1496 1500 1501 1502 1504 1506 1508 1510 1513 1517 1520 1522 1524 1527 1530 1533 1534 1535 1537 1538 1539 1541 1542
1499 1502 1506 1504 1497 1500 1499 1497 1490 1483 1480 1482 1479 1479 1480 1482 1482 1481 1480 1480 1480 1480 1483 1485 1487 1488 1490 1490 1492 1492 1492 1497 1500 1502 1506 1510 1513 1516 1518 1520 1524 1527 1528 1530 1533 1534 1534 1535 1537
1503 1504 1502 1503 1496 1498 1501 1487 1480 1481 1476 1476 1476 1474 1474 1473 1475 1476 1474 1473 1472 1471 1471 1475 1478 1481 1481 1482 1483 1487 1488 1490 1493 1497 1498 1502 1505 1508 1510 1512 1515 1519 1521 1523 1525 1528 1529 1530 1532
1502 1504 1502 1506 1499 1496 1498 1491 1470 1469 1469 1469 1469 1470 1470 1469 1468 1470 1470 1469 1467 1465 1465 1464 1465 1467 1470 1473 1477 1480 1482 1484 1484 1484 1486 1489 1495 1498 1502 1505 1508 1511 1514 1516 1518 1520 1523 1526 1528
1502 1492 1496 1501 1504 1514 1495 1511 1473 1468 1467 1466 1465 1468 1468 1467 1465 1465 1466 1465 1464 1460 1460 1460 1461 1460 1465 1467 1467 1467 1467 1470 1470 1474 1478 1482 1486 1490 1494 1498 1501 1504 1507 1508 1512 1514 1517 1521 1523
1496 1489 1492 1497 1505 1507 1505 1516 1460 1468 1468 1469 1464 1463 1464 1464 1463 1460 1460 1461 1460 1458 1458 1456 1454 1454 1455 1456 1459 1461 1461 1459 1464 1467 1469 1472 1477 1481 1486 1489 1493 1497 1500 1503 1505 1508 1511 1514 1517
1491 1491 1493 1492 1502 1517 1500 1509 1470 1472 1467 1461 1459 1461 1460 1461 1460 1458 1455 1455 1456 1455 1455 1455 1453 1450 1448 1449 1449 1449 1450 1455 1457 1457 1458 1460 1466 1471 1477 1480 1483 1488 1492 1494 1497 1503 1506 1508 1510
1493 1499 1515 1514 1520 1509 1491 1505 1459 1458 1461 1460 1461 1460 1458 1457 1456 1454 1452 1447 1448 1450 1450 1449 1449 1448 1445 1443 1441 1440 1439 1442 1445 1447 1449 1451 1453 1460 1465 1470 1473 1477 1484 1487 1491 1495 1498 1501 1505
1494 1498 1514 1515 1511 1504 1491 1494 1464 1455 1459 1459 1462 1462 1459 1457 1454 1449 1449 1445 1442 1441 1442 1441 1439 1437 1438 1436 1434 1431 1431 1431 1433 1434 1436 1440 1443 1451 1456 1462 1466 1471 1476 1482 1486 1489 1494 1497 1499
1491 1495 1491 1501 1503 1508 1496 1477 1458 1453 1455 1460 1462 1460 1460 1458 1454 1450 1444 1441 1439 1435 1433 1431 1429 1428 1426 1424 1421 1419 1421 1421 1421 1424 1427 1430 1433 1443 1448 1453 1459 1464 1469 1474 1479 1483 1488 1492 1493
1488 1490 1501 1504 1515 1516 1494 1488 1472 1454 1461 1464 1465 1466 1462 1458 1453 1447 1445 1440 1434 1429 1427 1425 1421 1417 1415 1411 1407 1404 1403 1408 1411 1415 1414 1417 1422 1434 1441 1445 1451 1455 1463 1468 1472 1476 1481 1486 1489
1497 1499 1497 1498 1505 1510 1500 1482 1456 1460 1465 1467 1466 1463 1460 1455 1450 1444 1440 1438 1433 1426 1421 1416 1412 1407 1403 1398 1394 1391 1389 1392 1398 1404 1404 1408 1415 1425 1432 1439 1445 1450 1451 1456 1462 1469 1473 1476 1480
1496 1497 1498 1514 1508 1507 1501 1471 1449 1459 1461 1462 1462 1460 1458 1454 1449 1443 1438 1433 1428 1422 1415 1410 1407 1401 1393 1387 1383 1381 1384 1385 1387 1391 1397 1399 1410 1418 1425 1431 1435 1439 1444 1449 1455 1461 1468 1468 1473